Simultaneous Nadir Overpasses (SNOs) Predictions

Prediction of SNOs between AQUA and METOP-A Satellite Orbit:

Table of predicted SNOs for the next 14.0 days since TLE Epoch: 5/2/2013
Index Date (AQUA) Time (AQUA) Lat,Lon (AQUA) SZA (AQUA ) Date (METOP-A) Time (METOP-A) Lat,Lon (METOP-A) SZA (METOP-A ) Distance(km) Time Diff (sec)
1 05/02/2013 06:03:17 -73.90, -96.59 121.57 05/02/2013 06:02:44 -73.90, -96.60 121.56 0.61 33
2 05/02/2013 06:52:46 73.97, 70.87 58.51 05/02/2013 06:53:23 73.96, 70.88 58.50 1.52 37
3 05/05/2013 01:37:29 -73.92, -30.19 122.36 05/05/2013 01:37:07 -73.90, -30.18 122.38 2.12 22
4 05/05/2013 02:26:57 73.95, 137.37 57.67 05/05/2013 02:27:46 73.96, 137.30 57.68 2.53 49
5 05/07/2013 20:22:07 73.56,-130.60 56.49 05/07/2013 20:20:57 73.48,-132.10 56.46 48.27 70
6 05/07/2013 21:11:40 -73.94, 36.21 123.12 05/07/2013 21:11:29 -73.94, 36.33 123.12 3.57 11
7 05/07/2013 22:01:08 73.98,-156.23 56.91 05/07/2013 22:02:08 74.00,-156.19 56.93 2.94 60
8 05/10/2013 15:56:21 73.85, -64.76 56.04 05/10/2013 15:55:11 73.86, -64.80 56.06 1.62 70
9 05/10/2013 16:45:48 -73.91, 102.74 123.90 05/10/2013 16:45:51 -73.93, 102.70 123.89 2.01 3
10 05/10/2013 17:35:17 74.01, -89.83 56.19 05/10/2013 17:36:30 73.99, -89.82 56.16 2.48 73
11 05/13/2013 11:30:30 73.87, 1.66 55.36 05/13/2013 11:29:33 73.88, 1.66 55.37 0.69 57
12 05/13/2013 12:19:57 -73.93, 169.16 124.59 05/13/2013 12:20:13 -73.95, 169.17 124.57 1.79 16




NCC Satellite Simultaneous Nadir Overpasses (SNOs) Prediction Service
